Вернуться в каталог

ONEWEB-0699

АктивенСвязьPO
NORAD 61605·PAYLOAD·🇬🇧 United Kingdom

Запущен Oct 20, 2024 с Vandenberg Space Force Base

Loading…

Ближайшие Пролёты (ближайшие 24 часа)

TLE

СвежийSource: CelesTrak SupGP

Эпоха: Sep 14, 2026, 23:01 UTC

1 61605C 24188M   26257.95921713 -.00001424  00000+0 -40828-2 0  2573
2 61605  87.8916  18.3924 0001273  82.0357  30.7498 13.10378095    13

Отслеживайте ONEWEB-0699 в реальном времени с AllMySat

Download on the App Store